RH
10 11 12 12 12 13 13 13 13 12 12 11 10 9 8 7 7 6 5 5 5 5 5 6 6 7 7 7 8 8 8 7 7 7 8 10 10 12 12 12 14 14 13 12 12 11 11 11 10 9 8 7 7 6 7 6 6 6 5 5 5 5 5 5 5 5 5 6 6 6 6 6 6 7 7 7 7 7 7 7 8 8 9 9 9 9 9 10 11 12 11 11 10 10 11 12 12
13 14 14 14 14 14 14 13 14 13 12 12 11 10 9 7 7 6 6 6 7 7 8 8 9 10 11 11 11 11 10 9 9 8 7 8 8 10 11 11 12 13 14 13 12 11 11 11 10 10 9 9 8 7 6 6 6 6 6 6 6 5 5 5 5 6 6 6 6 6 6 6 6 7 7 7 7 7 7 7 7 7 7 7 8 8 8 9 9 9 9 9 9 9 9 9 10
13 13 13 13 12 12 13 13 13 13 12 12 11 11 10 10 10 11 11 11 12 13 13 14 14 15 15 15 15 14 13 11 11 10 9 8 8 8 9 10 10 11 12 13 13 12 11 11 11 10 11 10 9 8 7 7 6 6 6 6 6 6 5 5 6 6 6 6 6 6 6 6 7 7 7 7 7 7 7 7 7 6 6 6 6 6 7 7 8 8 8 8 8 8 8 8 8
12 12 12 12 13 13 13 13 13 13 14 14 14 14 14 15 15 15 16 16 16 17 17 17 18 18 17 17 17 17 15 13 12 11 11 10 9 8 8 8 8 9 10 12 13 12 12 11 11 11 11 11 10 9 8 8 7 7 6 6 6 6 6 6 6 6 6 6 6 6 6 6 6 6 7 7 7 7 7 7 7 7 6 6 6 5 5 5 6 6 6 7 7 7 7 7 7
12 12 12 13 13 14 14 14 14 14 14 14 15 16 15 16 16 16 16 16 17 17 17 17 18 18 18 18 19 19 17 15 14 13 12 11 11 10 9 8 7 7 8 10 11 12 12 12 11 11 10 11 10 10 9 8 8 7 7 6 6 6 6 6 6 6 6 6 6 6 6 6 6 6 6 6 7 7 7 7 7 6 6 6 5 5 5 5 5 5 5 5 5 5 5 5 5
11 11 12 12 13 13 13 14 14 13 13 13 13 14 15 15 15 15 16 15 15 16 16 16 16 16 17 17 18 18 18 16 15 15 14 12 11 11 11 9 8 7 7 8 9 10 10 11 11 11 10 10 10 9 9 8 8 8 7 7 6 6 6 6 6 6 6 6 6 6 6 6 6 6 6 6 6 6 6 6 6 6 6 6 6 5 5 5 4 4 4 4 4 4 4 4 4
10 11 11 12 13 13 13 14 14 13 13 13 13 13 14 14 14 14 14 15 15 15 15 15 15 14 15 16 16 17 17 16 15 15 15 13 11 10 10 9 9 7 7 7 8 8 8 9 10 10 10 9 9 9 9 9 8 8 8 7 7 6 6 5 5 6 6 6 6 6 6 6 6 6 6 6 6 6 6 6 6 6 6 6 5 5 5 5 4 4 4 4 4 3 3 3 3
10 10 11 11 12 12 12 13 13 13 13 13 13 13 13 13 14 14 14 15 15 16 16 16 16 15 15 14 14 15 16 15 15 16 16 15 13 11 10 8 8 8 7 7 7 7 7 8 9 9 9 9 9 9 9 9 9 8 8 8 8 7 7 7 6 6 6 6 6 6 6 6 6 6 6 6 6 6 6 6 6 6 5 5 5 5 5 4 4 4 4 4 4 3 3 3 3
10 10 11 11 11 12 12 12 13 13 12 12 14 13 13 14 14 15 15 16 16 17 18 18 18 17 16 15 15 15 15 15 14 15 16 16 16 15 13 10 8 7 7 7 7 6 6 7 7 8 9 9 9 9 9 9 8 8 9 8 9 9 8 8 7 7 7 7 7 7 7 7 7 7 7 6 6 6 6 6 6 6 6 6 5 5 5 5 4 4 4 4 4 4 3 3 3
9 10 10 11 11 11 11 12 12 13 12 12 13 13 13 13 13 14 15 16 16 16 18 19 19 18 18 17 17 17 17 16 15 15 15 15 16 16 16 15 12 10 8 7 7 7 6 6 6 7 8 9 9 9 8 8 8 8 9 9 9 9 9 9 9 9 8 8 8 8 8 8 7 7 7 6 6 6 6 6 6 6 6 6 6 6 5 5 5 4 4 4 4 4 4 3 3
8 9 9 10 11 11 11 12 12 13 12 12 12 12 11 11 12 13 14 15 15 14 16 18 18 19 19 18 18 18 18 18 18 17 16 15 15 16 15 15 15 14 12 10 8 7 7 7 7 7 7 8 8 8 8 8 8 8 8 8 8 8 9 9 9 9 9 9 9 9 9 9 8 8 7 6 6 6 6 6 6 6 6 6 6 6 6 6 6 5 5 4 4 4 3 3 3
8 8 8 9 10 10 11 11 11 12 12 12 11 11 11 10 11 11 11 12 13 12 12 13 15 16 17 16 16 16 17 18 19 19 18 18 17 17 16 15 15 15 15 14 11 9 8 7 7 7 7 7 8 8 8 8 8 8 8 8 8 8 8 9 9 9 10 10 9 10 9 9 9 8 7 7 6 6 6 6 6 6 6 7 7 7 7 6 6 6 5 5 4 4 3 3 3
8 8 8 8 8 9 9 10 10 10 10 10 10 10 10 10 11 11 11 11 11 11 11 11 11 13 13 13 13 13 13 15 16 17 17 17 18 18 18 18 17 16 15 14 14 13 11 9 8 7 7 7 7 7 7 7 7 7 7 8 8 8 8 8 9 9 10 10 10 10 9 9 8 7 7 6 6 6 5 5 6 6 6 7 7 7 7 7 6 6 5 5 4 4 3 3 3
9 9 9 9 9 8 9 9 9 9 9 9 8 9 10 9 9 10 10 11 11 11 10 10 10 10 11 12 12 12 12 13 13 14 14 14 15 15 16 16 17 17 17 16 15 14 13 13 12 10 9 8 7 7 7 7 7 7 6 6 7 8 8 8 9 9 10 10 10 10 10 9 9 8 7 6 6 5 5 5 6 6 6 6 7 7 7 7 6 6 5 5 4 4 3 3 3
10 10 10 10 10 10 10 10 10 10 9 9 9 9 9 9 8 8 8 9 9 9 9 8 9 9 10 10 11 11 12 12 13 13 12 13 13 13 13 13 14 15 15 16 16 16 15 15 14 13 13 12 11 10 10 9 8 7 6 6 6 7 8 8 9 9 10 10 11 10 10 10 9 9 8 7 6 6 6 6 6 6 6 6 6 7 7 7 6 6 6 5 5 4 4 3 3
9 10 10 11 11 11 11 12 12 11 11 11 11 11 10 10 10 10 9 9 9 10 9 9 10 10 10 10 10 10 10 11 12 13 12 13 13 13 13 13 13 13 13 14 14 15 15 15 15 15 15 14 14 13 13 13 12 11 9 8 8 8 9 9 9 9 10 10 11 11 11 10 10 9 9 8 7 7 6 6 6 6 6 6 7 7 7 7 7 6 6 6 5 5 4 4 4
9 10 10 10 10 11 11 11 12 12 12 12 12 12 12 12 11 11 11 11 11 11 10 10 12 12 12 12 12 11 10 10 10 11 11 10 11 11 11 11 12 12 13 13 13 14 14 14 14 15 15 15 15 15 15 14 14 14 13 12 11 10 10 10 10 10 10 10 11 11 11 11 10 10 9 9 8 7 7 6 6 6 6 6 7 7 8 7 7 7 7 6 6 6 5 5 4
9 10 10 10 10 10 10 10 11 11 11 11 11 11 11 12 11 11 11 11 11 11 11 10 11 12 12 12 12 12 11 10 9 9 9 8 8 8 8 8 8 9 9 10 10 11 12 13 13 14 15 15 15 16 16 16 15 14 14 14 14 14 13 12 12 12 11 11 11 11 11 11 11 11 10 10 9 9 8 7 7 6 6 7 8 8 9 9 9 9 9 8 8 7 7 6 6
9 10 10 10 10 10 10 10 10 10 10 10 10 10 10 10 10 10 10 10 10 10 10 10 10 11 11 11 11 11 12 11 11 10 10 9 9 8 8 8 8 8 8 8 8 8 8 9 10 11 13 14 15 15 16 16 16 16 15 15 14 14 14 14 13 13 12 12 12 12 12 12 12 12 11 10 10 10 9 9 8 8 8 8 8 9 10 10 10 11 10 10 10 10 9 8 7
9 9 11 11 10 10 10 10 10 10 10 10 10 10 10 10 10 10 10 10 10 10 10 9 9 10 10 10 10 10 11 11 12 12 11 11 10 10 10 10 10 10 10 9 9 9 9 9 9 9 10 10 12 13 15 16 16 15 16 16 15 15 14 14 14 14 14 14 14 13 13 13 13 12 12 11 10 10 10 10 9 9 8 8 9 9 10 10 11 11 12 12 12 12 11 10 9
8 9 10 10 10 10 10 10 10 10 10 10 10 9 9 9 9 9 9 9 10 10 10 9 9 9 9 9 9 10 10 10 11 11 11 11 11 11 10 10 10 10 11 10 10 10 10 10 11 11 11 11 11 11 12 14 16 16 15 14 15 16 15 15 14 14 14 15 15 15 15 15 14 14 13 13 12 11 11 11 11 10 10 10 10 10 10 11 11 12 12 13 13 13 13 12 11
8 9 9 10 9 9 9 10 9 9 9 9 9 9 8 9 8 8 8 9 11 11 10 9 9 9 9 9 9 9 10 10 10 11 11 11 11 11 11 11 10 10 10 10 10 10 10 10 10 10 11 13 13 13 13 11 13 15 17 16 14 14 15 16 16 15 15 15 15 15 16 16 16 15 15 14 14 13 13 12 12 12 11 11 11 11 11 11 11 12 12 13 14 14 15 14 14
8 9 10 10 9 9 9 9 9 9 9 9 9 8 9 9 8 8 7 9 12 11 9 9 9 10 10 10 10 9 10 9 9 10 10 11 11 11 11 11 11 10 10 10 10 10 9 9 9 9 10 11 13 15 16 14 12 12 15 18 17 15 13 14 16 16 17 17 17 17 17 17 17 17 17 17 16 16 15 15 14 14 13 13 13 13 13 13 13 13 13 14 14 15 16 16 15
9 9 10 10 9 9 10 9 9 9 9 10 9 8 9 9 8 7 7 10 13 11 9 8 9 10 9 10 10 10 10 10 10 10 10 10 10 10 10 10 10 10 11 11 10 10 10 10 10 9 10 11 12 14 17 17 15 13 12 14 17 19 17 14 13 14 16 17 19 19 20 20 20 20 20 20 19 19 18 17 17 16 15 15 15 15 15 15 15 15 15 16 16 17 17 16 16
8 9 9 9 10 10 10 10 9 10 10 10 9 8 9 9 7 6 6 11 14 10 8 9 9 9 9 9 10 10 10 10 10 10 10 10 10 10 10 10 9 10 10 10 11 11 11 11 10 10 10 10 12 14 17 18 18 16 14 12 13 16 19 19 17 15 14 15 16 18 19 20 21 22 22 22 22 21 21 20 19 18 17 16 16 15 16 15 15 15 15 16 16 16 16 16 16
8 9 9 8 9 10 10 10 10 11 11 10 8 8 8 8 7 6 8 13 14 9 8 9 9 9 9 9 9 9 9 9 10 10 10 10 10 11 11 10 9 9 9 9 10 10 11 10 11 11 10 11 12 14 17 19 20 19 17 15 13 13 15 19 20 21 19 16 15 15 16 18 19 21 22 23 23 23 22 22 21 20 19 18 17 17 16 15 14 14 14 14 14 15 15 15 15
9 9 8 9 9 10 10 9 11 13 12 9 8 8 8 8 8 7 10 13 12 9 9 9 9 9 9 9 8 8 8 9 9 9 9 9 10 10 10 9 9 9 8 8 9 9 10 10 11 11 11 11 11 13 17 19 21 22 21 20 17 14 13 14 17 21 22 22 19 17 16 16 17 19 21 23 24 24 24 24 23 22 21 20 19 18 17 16 14 14 14 14 14 14 14 14 14
11 10 10 10 10 10 10 10 13 14 11 9 9 8 8 8 8 9 12 12 10 10 10 10 10 9 9 9 8 8 8 9 9 8 8 8 9 9 9 9 9 9 8 8 8 8 9 9 10 10 11 11 10 12 17 21 23 23 23 23 21 17 15 13 13 16 21 23 23 22 20 19 19 19 20 21 21 23 23 24 24 24 23 22 21 20 18 17 16 15 16 16 16 16 16 15 14
12 12 12 12 12 12 12 12 15 14 10 9 10 8 7 8 9 11 13 12 10 10 11 11 11 10 9 9 8 8 9 9 9 8 9 9 8 8 8 8 8 8 8 8 7 7 8 8 9 10 10 11 10 11 14 20 24 24 24 25 24 22 18 14 12 13 16 20 22 24 24 23 23 22 22 21 20 20 21 21 23 25 25 25 24 23 21 20 19 19 19 19 19 19 19 17 16
13 13 13 13 13 14 15 16 16 14 11 10 11 9 6 8 11 13 15 14 12 12 12 13 12 11 10 9 8 8 9 10 9 9 9 9 8 8 8 8 8 7 7 7 7 8 8 8 9 10 11 11 11 10 12 18 24 26 26 26 26 25 21 17 14 12 13 15 18 21 23 24 25 25 25 24 23 22 21 21 21 22 24 26 26 26 25 24 24 23 22 22 21 20 20 19 18
15 15 14 15 17 17 16 14 13 12 11 12 13 11 7 8 11 13 16 16 15 14 13 14 13 13 13 11 10 9 10 11 11 10 10 10 9 8 8 8 7 7 7 7 7 8 8 9 10 10 11 11 11 11 10 16 24 28 28 28 28 26 22 20 16 13 12 13 15 19 23 25 26 27 26 26 25 24 24 23 22 22 23 25 26 27 27 27 26 25 25 23 22 21 20 20 20
19 19 20 22 21 19 17 14 12 11 12 13 13 11 7 7 10 13 15 15 15 14 14 14 14 14 14 13 13 11 10 11 11 10 10 11 10 8 8 8 8 8 8 7 7 8 9 10 11 11 11 12 12 11 11 16 25 29 29 30 29 27 23 21 18 14 13 14 17 21 24 26 27 28 27 26 25 24 24 24 24 24 24 24 25 27 27 27 27 26 26 25 24 24 23 23 22
31 33 32 31 27 22 18 14 12 12 13 13 13 12 9 7 9 12 13 13 14 13 13 13 14 13 14 14 14 12 10 11 10 10 10 11 10 9 9 10 10 10 9 8 8 9 10 11 12 12 12 12 12 11 12 17 25 29 30 30 29 27 23 21 18 16 16 18 21 24 26 27 28 28 27 26 24 23 23 24 26 26 27 26 26 26 27 27 27 26 25 25 24 24 24 24 24
55 56 48 42 41 34 28 22 17 14 13 13 13 11 9 8 10 11 12 13 12 12 12 12 12 13 14 15 15 14 12 10 9 10 11 10 10 10 11 11 12 12 11 10 10 10 11 11 12 13 12 12 11 11 13 17 23 27 29 30 29 27 24 21 19 19 20 22 24 26 27 28 29 29 28 26 24 24 25 27 28 29 29 29 28 27 27 27 27 26 25 24 24 23 23 23 23
64 67 59 53 50 44 38 32 26 22 17 14 13 10 9 9 10 10 11 12 11 11 11 10 11 13 13 14 15 15 14 11 10 11 12 11 11 12 12 13 13 13 12 11 11 11 12 12 12 11 12 11 10 11 13 18 23 26 28 30 28 26 24 22 21 22 23 24 25 26 28 29 29 29 28 27 25 25 28 30 31 31 32 31 30 28 27 26 26 25 25 24 24 23 22 22 22
59 62 61 58 54 46 41 38 35 34 24 15 14 11 9 9 8 9 10 11 11 10 11 11 11 12 13 14 13 15 16 14 12 13 14 14 14 14 13 13 13 12 12 12 13 14 15 16 15 12 12 10 10 13 16 20 25 27 28 29 28 26 25 24 24 24 24 26 27 28 29 30 29 29 29 27 26 26 28 30 32 32 32 32 31 31 29 28 27 26 26 25 24 23 22 22 21
55 55 57 58 56 47 46 50 48 45 30 17 19 16 11 10 8 8 10 11 11 10 11 11 11 11 12 12 12 13 16 15 15 15 15 15 14 14 14 13 13 13 13 13 14 16 18 21 20 17 15 12 14 18 20 24 26 27 28 28 28 26 26 26 25 25 26 27 28 29 30 29 29 29 29 28 27 27 28 29 31 32 32 30 29 29 29 29 28 28 28 27 26 25 24 23 23
54 54 54 53 54 49 50 57 57 53 38 20 20 18 11 12 11 10 12 12 12 11 11 11 10 11 10 11 11 12 15 15 16 16 14 14 14 14 13 13 13 13 13 13 15 17 18 22 24 22 20 19 22 24 24 26 27 27 27 28 28 27 27 27 27 27 28 28 29 29 29 30 30 30 29 29 29 29 29 29 30 32 32 30 28 27 27 26 27 27 28 29 27 26 25 24 24
55 53 50 46 52 53 48 54 59 58 46 27 24 21 13 13 13 11 12 12 12 12 12 12 11 11 10 10 11 11 14 15 15 16 15 14 13 13 13 13 13 13 13 14 16 18 18 21 26 26 25 26 27 27 27 27 26 25 26 28 29 28 28 28 29 29 30 30 29 29 29 30 31 31 31 31 31 30 30 30 31 32 31 29 28 26 26 26 26 25 26 27 27 27 26 25 24
56 53 50 46 55 57 45 47 54 52 45 36 33 28 20 18 16 13 15 14 14 14 13 13 12 12 12 12 14 14 15 17 16 16 16 15 14 13 13 14 13 13 14 15 18 21 21 20 25 29 29 29 29 28 28 26 24 25 27 29 30 29 30 30 30 31 31 30 29 29 30 31 33 34 35 35 35 34 33 32 31 31 30 28 27 26 25 25 24 24 24 24 25 26 26 26 25
54 51 52 51 56 58 47 45 47 40 38 37 35 28 19 19 19 18 20 19 18 19 18 17 15 14 15 15 16 17 18 20 20 19 18 15 14 13 14 14 14 14 14 15 19 23 24 20 23 30 30 30 30 29 28 25 25 27 28 29 29 30 31 31 32 32 31 30 29 30 31 33 35 36 38 39 39 38 36 33 32 31 29 27 25 24 24 23 22 22 22 22 23 25 26 26 25
49 49 56 56 55 55 50 49 44 34 32 36 37 28 14 15 19 18 21 23 23 25 23 21 19 18 19 18 18 19 21 24 26 23 20 17 14 14 13 14 14 14 15 17 19 22 25 22 22 28 30 29 30 29 28 27 27 28 29 29 29 30 30 31 32 31 31 31 30 32 34 36 38 38 39 40 39 39 38 36 34 32 30 28 25 23 22 20 19 20 20 20 22 24 26 26 26
45 47 58 58 55 54 52 52 46 35 32 34 37 34 19 11 15 17 21 22 23 24 24 23 24 22 23 22 20 21 23 27 30 27 24 21 17 16 15 15 15 15 16 17 19 21 24 23 22 25 28 29 29 29 29 28 28 28 29 29 28 29 30 31 32 31 31 31 32 33 35 38 39 39 40 40 39 37 36 35 34 32 31 29 27 25 23 20 19 19 19 20 21 24 25 26 26
47 49 60 60 61 62 58 55 49 39 34 31 32 39 29 11 11 20 21 20 19 20 23 24 25 23 24 24 22 23 25 26 29 30 29 27 25 23 22 20 19 18 20 21 22 23 25 25 25 26 29 30 30 29 29 29 29 30 30 30 31 31 32 32 32 32 32 32 33 35 36 39 41 41 41 39 36 34 32 31 32 32 31 29 29 27 24 22 20 20 20 19 20 20 21 21 21
55 58 62 62 67 70 68 64 58 48 38 27 24 35 36 16 11 21 20 17 17 16 21 23 22 21 22 24 23 23 25 25 28 30 31 34 36 36 34 31 28 26 27 28 26 25 25 28 29 30 32 33 32 32 31 31 31 32 32 32 33 33 33 33 32 32 32 33 35 37 38 40 42 44 43 38 33 30 28 27 29 30 30 29 29 28 25 23 21 20 20 18 17 16 15 16 16
60 66 68 70 74 74 78 75 69 62 43 25 22 35 44 25 11 17 17 16 17 16 19 19 18 19 19 22 22 22 23 23 25 29 32 36 39 40 40 38 36 33 32 31 29 29 28 28 30 32 35 36 36 36 35 35 34 34 35 35 36 35 35 33 32 33 34 35 37 39 39 40 43 45 44 39 33 28 25 25 26 27 29 29 29 28 27 25 22 21 20 18 16 14 14 14 14
65 72 74 78 81 80 83 75 69 67 43 25 29 42 52 32 9 13 17 20 23 20 19 18 19 20 19 20 20 20 22 23 25 26 29 34 36 39 39 37 36 35 34 33 31 32 31 29 29 32 36 38 39 39 38 37 36 36 39 39 40 40 37 35 35 36 36 37 39 39 39 40 43 46 46 43 37 31 26 24 24 25 26 28 27 26 26 26 25 24 22 20 18 16 15 15 15
65 71 75 85 87 82 80 68 65 64 41 29 38 47 49 29 10 16 20 24 29 25 22 23 23 23 22 22 22 21 22 26 30 30 30 33 34 35 35 32 31 30 31 32 32 33 34 33 33 34 36 38 39 40 40 39 38 40 42 43 44 43 41 39 39 39 39 40 40 39 39 42 46 49 49 47 43 37 31 27 24 24 25 26 26 24 24 24 26 26 25 23 22 21 19 18 17
66 67 71 86 89 78 72 67 69 66 46 38 48 53 43 21 12 19 21 25 30 29 29 29 27 25 24 25 24 23 24 27 33 36 35 35 35 36 35 33 32 29 28 29 29 31 34 36 36 35 35 36 38 39 40 38 38 41 42 43 46 47 47 46 45 44 43 41 40 38 38 41 47 49 48 46 45 42 37 32 27 26 26 26 25 23 22 22 24 25 26 25 24 22 20 19 18
75 70 73 86 86 77 76 75 75 67 50 48 60 59 36 14 12 18 20 25 28 30 32 31 30 28 26 27 25 25 27 30 33 36 37 36 36 39 41 40 40 37 33 30 31 32 35 39 39 39 37 35 35 36 38 39 40 41 41 42 46 49 50 49 47 46 44 40 39 39 38 39 43 47 47 45 44 43 41 37 33 30 29 28 27 25 24 23 25 25 26 25 24 23 22 22 22
73 71 83 89 81 81 87 86 82 73 64 64 67 56 29 14 20 22 24 29 29 32 35 33 32 31 31 32 30 30 33 36 38 40 43 44 42 43 44 44 44 42 40 38 39 38 38 41 41 41 42 40 38 36 36 38 39 40 40 42 47 50 51 49 47 46 44 42 41 42 42 40 40 43 46 47 46 43 43 41 39 35 34 34 33 32 30 29 28 28 27 27 26 26 26 26 26
72 71 83 81 75 87 99 97 92 88 85 76 62 49 33 25 29 30 31 35 35 37 39 36 33 31 32 34 38 43 44 46 47 46 49 53 54 52 50 49 46 43 44 45 46 45 43 45 45 44 44 42 42 41 39 39 39 39 41 44 47 50 51 50 49 47 44 44 44 43 45 45 43 41 42 46 47 44 43 41 40 39 38 38 38 38 37 35 34 33 32 31 30 30 30 30 30
81 77 77 74 78 93 100 100 97 97 97 79 54 46 41 37 35 34 38 40 39 40 39 38 36 34 34 37 45 50 49 52 52 50 52 56 60 61 59 58 55 49 46 47 51 53 51 50 52 52 50 46 46 46 45 43 40 39 41 43 46 48 49 48 46 45 43 43 44 45 47 48 47 44 41 42 45 45 43 40 40 40 40 41 41 41 40 38 38 38 38 37 36 35 33 32 31
86 82 77 74 78 84 90 99 100 98 102 87 63 48 45 48 43 34 40 46 42 41 39 38 40 39 39 45 52 53 52 54 53 50 49 50 57 65 66 66 65 60 56 55 57 58 57 58 58 59 59 58 57 54 52 50 47 45 44 44 45 45 45 46 45 44 43 43 44 46 48 49 49 47 43 42 44 44 43 42 41 41 40 41 41 41 40 38 39 40 40 39 36 34 34 33 32
86 88 89 88 83 76 79 93 98 97 99 97 85 67 52 51 46 38 44 47 42 40 38 41 46 44 44 50 55 56 55 54 51 49 48 51 61 70 72 73 74 72 67 67 70 67 63 62 61 63 68 70 68 63 59 58 54 52 49 47 47 47 46 48 48 46 45 45 46 46 47 49 49 48 46 44 43 42 42 41 41 41 41 41 40 39 38 38 38 38 37 37 36 36 37 37 38
80 89 99 100 95 88 86 93 98 99 99 99 97 89 70 51 43 44 45 42 39 39 38 42 48 49 49 52 56 58 56 54 58 61 59 61 72 78 79 81 86 85 77 76 85 82 74 70 66 68 74 76 74 69 65 64 62 60 55 51 52 53 53 53 51 47 46 50 52 53 53 53 51 50 47 45 43 42 42 42 42 43 44 44 43 42 41 40 39 40 40 41 41 41 42 43 43
75 89 100 101 99 97 97 99 99 99 101 99 98 101 90 61 44 44 43 41 42 40 39 44 50 54 57 59 64 65 64 68 81 86 80 77 82 85 84 86 93 98 91 88 96 95 90 89 84 82 83 79 76 72 68 66 67 66 61 58 58 59 59 58 52 47 48 53 58 62 62 59 54 50 48 46 45 44 44 44 45 47 49 49 48 46 45 45 46 47 49 49 47 47 47 48 47
80 88 96 100 99 100 101 98 96 96 100 101 98 102 97 70 46 40 38 38 43 46 51 58 63 66 70 74 80 79 77 85 96 100 99 96 95 93 93 94 98 104 101 97 100 99 97 99 98 96 92 84 80 78 72 69 68 66 64 63 64 63 62 59 54 48 48 56 64 69 67 61 56 52 50 49 48 46 46 45 46 46 47 48 47 46 46 48 50 52 54 53 50 49 50 50 48
Wind_Speed
17 18 18 19 19 20 21 21 22 22 21 20 19 18 17 16 16 16 16 15 13 13 13 14 13 13 13 13 14 14 13 12 11 10 10 9 9 10 11 10 10 11 10 10 11 11 10 9 8 7 5 4 3 2 2 1 0 1 3 4 4 3 3 3 2 2 2 2 2 1 1 1 1 1 2 2 3 3 4 4 5 5 6 6 6 6 7 8 9 10 10 10 11 11 12 12 12
16 15 15 16 16 16 17 17 18 19 18 17 16 15 14 14 14 14 14 14 13 13 14 14 14 14 14 14 14 15 14 13 12 11 10 10 10 11 12 11 11 11 10 10 11 11 11 11 10 9 8 7 6 5 4 3 3 3 2 3 3 3 3 3 2 2 2 2 2 2 1 1 2 2 2 2 3 3 4 4 5 5 6 6 6 6 6 7 8 9 9 9 10 11 12 12 12
12 12 11 12 12 12 14 14 15 16 16 15 14 13 13 12 12 12 13 13 13 13 14 14 15 14 14 14 15 15 15 14 14 13 12 11 11 12 13 13 13 12 11 10 11 11 11 12 11 11 10 9 8 8 7 6 6 6 5 5 4 4 4 4 3 3 3 3 3 3 2 2 3 3 3 3 3 4 4 5 5 6 6 7 7 8 7 7 8 8 9 9 9 10 10 11 11
10 10 10 10 11 11 13 14 15 16 15 14 12 11 11 11 11 11 11 12 12 13 13 14 14 14 13 13 14 14 15 14 14 14 13 13 13 13 14 14 14 13 12 11 11 11 11 12 12 12 12 12 11 10 9 9 8 8 8 8 7 6 6 5 5 5 5 5 5 4 4 4 4 5 5 5 5 5 6 6 6 6 7 7 8 8 9 9 9 9 10 10 9 10 10 10 10
9 9 10 10 11 11 13 14 14 15 15 13 11 11 10 11 11 11 10 11 11 12 13 13 13 13 13 13 13 13 13 13 13 12 13 14 14 14 15 16 15 15 13 13 13 13 12 12 12 13 13 13 13 12 11 10 10 9 9 9 10 9 9 8 8 7 7 7 7 7 6 6 6 7 7 7 7 7 7 7 8 8 8 9 9 9 10 10 10 10 11 11 11 11 11 11 11
8 9 10 10 11 12 13 13 13 14 14 14 12 11 10 10 10 10 10 10 11 11 12 12 12 12 13 12 12 12 12 12 11 11 12 13 13 14 16 18 17 16 15 14 14 14 13 13 13 14 14 14 14 13 13 12 11 11 10 10 11 11 11 11 10 9 9 9 9 9 9 9 9 9 9 9 9 8 8 9 9 9 10 10 10 11 11 11 11 12 12 12 12 12 12 12 12
8 9 10 10 11 12 12 12 13 13 13 13 13 11 10 10 10 10 11 12 12 12 12 12 12 12 12 12 12 12 12 12 12 11 11 11 12 13 15 18 18 18 17 15 16 16 15 14 14 15 15 15 15 15 14 14 13 12 12 12 12 12 12 12 11 11 11 11 11 11 11 11 11 11 11 10 10 10 10 10 10 10 11 11 12 12 13 13 13 13 14 14 14 13 13 13 13
8 8 9 10 11 11 12 12 12 13 12 12 12 11 10 10 11 11 12 12 12 12 13 13 13 13 13 13 13 12 12 13 12 12 11 11 11 11 13 15 17 18 18 17 17 17 16 16 15 15 16 16 16 16 16 15 15 14 14 13 13 13 13 13 13 12 12 12 12 12 12 12 12 13 13 12 12 12 12 11 11 11 12 12 13 13 14 15 15 15 15 16 16 16 15 15 15
8 8 8 9 10 10 11 10 10 12 12 11 12 12 11 10 10 10 11 12 12 12 13 13 13 13 13 14 13 12 12 13 13 12 11 11 11 11 12 13 14 16 17 18 18 18 18 18 17 16 16 16 17 17 17 17 17 16 16 16 15 15 15 15 14 14 14 14 14 14 14 14 14 14 15 15 14 14 14 14 13 13 13 14 14 14 15 16 16 17 17 17 17 18 18 17 17
8 8 9 9 9 9 10 9 9 11 11 11 12 12 11 10 9 10 11 11 12 12 12 12 12 12 13 14 13 12 12 13 13 12 11 11 11 11 12 12 13 13 14 15 17 18 19 19 18 18 17 17 17 17 18 18 19 18 18 18 18 18 17 17 16 16 15 15 15 15 15 16 16 17 17 17 17 16 16 16 16 16 16 16 16 16 17 17 17 18 18 18 19 19 19 19 19
10 10 9 9 9 9 9 9 9 10 10 11 11 12 11 10 9 10 10 11 12 12 11 11 12 12 13 13 13 12 11 12 12 12 12 11 11 11 12 12 12 12 12 13 14 16 17 18 19 19 18 18 18 18 19 19 20 20 21 21 21 21 20 19 18 18 17 16 16 16 16 17 17 18 19 19 19 19 19 18 18 18 18 18 18 18 19 19 19 20 20 20 20 20 20 20 20
12 12 11 10 10 9 9 8 8 8 9 10 9 10 11 11 10 10 10 11 12 12 12 11 11 12 13 13 13 12 11 11 11 11 11 11 11 11 12 12 12 12 12 12 13 14 15 17 18 19 19 20 20 20 20 20 20 21 22 23 23 23 23 22 21 20 19 18 18 18 18 18 19 20 20 21 21 21 21 21 20 20 20 20 20 20 20 21 21 21 21 21 21 21 21 21 21
14 14 13 12 12 11 10 10 9 9 9 9 9 9 11 11 11 11 10 10 11 12 12 12 11 12 13 14 14 13 12 11 11 11 10 10 10 11 11 11 11 11 12 12 12 13 14 15 16 17 18 19 20 21 21 21 22 22 23 24 25 25 25 25 24 23 22 21 20 20 20 21 21 21 22 22 22 23 23 23 22 22 22 22 22 22 22 22 23 23 23 23 23 23 22 22 22
16 16 15 14 14 13 13 12 12 11 10 11 11 11 11 12 12 11 10 10 11 12 12 12 12 12 12 14 14 13 13 11 11 11 10 10 9 10 10 11 11 11 11 12 12 13 13 14 15 16 17 18 20 21 22 23 23 23 24 24 25 26 26 26 25 25 24 23 23 22 22 22 23 23 23 24 24 24 24 24 24 24 25 25 25 25 25 25 25 25 25 25 25 25 25 24 23
17 17 17 17 16 15 14 15 14 13 12 12 12 13 12 12 12 12 11 10 11 12 12 12 12 12 12 14 14 14 14 12 11 11 11 10 9 9 10 10 10 10 11 11 12 12 13 13 14 15 16 17 19 20 21 22 23 24 24 25 25 25 26 27 26 26 26 26 25 25 24 24 24 24 24 25 25 25 26 26 26 26 27 27 27 27 26 26 26 27 27 27 27 27 27 26 26
19 19 19 19 18 17 16 16 15 14 14 13 13 14 14 14 13 13 13 11 12 13 13 12 12 13 13 14 15 15 14 14 11 10 10 10 10 9 9 10 10 10 10 11 11 12 12 13 13 14 15 16 18 19 20 21 22 23 23 24 24 25 25 26 27 27 27 27 27 27 27 26 25 25 25 25 26 26 27 27 28 28 28 28 28 28 28 28 28 28 28 28 28 29 29 29 28
22 21 21 22 21 20 19 18 17 17 16 15 14 15 15 16 15 14 15 14 14 14 14 12 11 14 15 14 15 15 15 14 13 11 11 11 10 10 9 10 10 10 10 11 11 12 13 13 13 14 15 16 17 18 19 21 22 23 23 23 24 24 25 26 27 27 28 28 28 28 28 28 27 27 26 26 26 27 27 28 28 29 29 29 28 28 28 28 28 29 29 30 30 30 30 30 30
24 23 23 24 24 23 23 22 21 21 20 19 18 17 17 18 18 17 18 18 16 16 17 15 13 15 16 16 16 16 16 15 14 13 12 12 11 11 10 11 11 11 11 11 11 12 13 13 14 15 15 16 17 17 18 19 21 22 23 24 25 25 25 26 27 28 28 28 28 28 29 29 29 29 29 28 28 28 28 29 29 29 29 30 29 29 29 29 29 30 31 31 31 31 31 31 31
26 26 25 27 27 26 26 26 25 25 24 24 23 22 21 21 21 20 21 21 21 20 19 18 16 17 18 18 18 18 18 17 16 15 15 14 13 12 12 12 13 13 13 13 13 13 13 14 14 15 16 17 17 18 18 19 20 21 22 24 25 26 27 28 28 29 29 29 29 29 30 30 31 31 31 31 30 30 30 30 30 31 31 31 31 30 30 31 31 31 32 32 32 32 33 33 33
29 28 27 29 30 28 29 29 28 28 27 27 27 26 26 25 24 23 24 24 23 23 23 22 19 20 20 20 20 20 19 19 18 18 17 17 16 15 15 14 15 15 15 15 16 15 15 15 16 16 17 18 18 18 19 20 21 21 22 23 24 25 27 28 29 30 30 30 30 31 31 32 32 33 33 33 33 32 32 32 32 33 33 33 33 33 33 33 33 34 34 34 34 34 34 34 34
31 30 30 31 32 30 31 31 31 32 31 31 31 30 29 29 28 28 28 26 24 26 27 25 23 22 23 22 23 22 21 21 20 20 20 19 19 18 18 17 17 17 17 17 18 18 17 17 17 18 18 19 19 19 19 20 21 22 23 24 24 25 26 27 28 29 30 31 31 32 32 33 34 34 34 35 35 34 34 34 35 35 35 35 36 36 36 36 36 36 36 36 36 36 36 36 36
32 32 32 33 34 32 32 33 33 34 34 33 33 33 33 32 31 31 32 27 25 28 29 29 27 24 25 25 25 25 25 25 23 23 23 22 21 21 21 21 21 20 20 20 21 20 20 20 20 20 20 21 21 20 20 20 21 22 22 23 25 26 26 27 28 29 30 30 31 32 33 34 35 36 36 36 36 36 36 36 36 37 37 37 38 38 38 39 39 39 39 39 39 39 38 38 38
33 32 33 34 35 33 32 34 34 35 35 34 35 35 35 34 33 33 33 29 28 30 32 33 30 26 26 26 26 26 28 28 27 26 26 26 25 24 24 24 24 24 22 23 23 23 23 23 23 22 22 22 22 21 21 21 22 22 22 23 24 25 26 27 28 29 29 30 31 32 32 34 35 36 36 37 38 38 38 38 38 39 39 39 39 40 40 41 41 41 42 42 42 41 41 41 40
35 32 33 35 35 34 32 33 34 35 35 35 37 35 35 35 36 35 33 31 31 33 34 35 33 29 29 27 27 28 29 29 29 29 30 29 29 28 28 28 28 27 25 26 26 25 25 25 25 24 25 25 24 23 22 22 23 23 23 24 25 24 24 26 27 28 28 29 30 31 32 33 34 35 36 37 38 39 39 40 40 40 41 41 40 41 41 41 42 42 43 44 44 44 44 43 42
36 34 34 35 35 34 33 34 34 35 36 37 39 36 35 37 39 36 33 32 33 35 36 35 35 33 31 30 30 30 30 29 29 30 32 32 32 31 31 32 32 29 29 30 29 27 28 28 27 26 27 26 26 25 24 24 24 24 24 25 26 25 25 25 25 25 27 27 29 30 31 31 32 33 34 35 37 38 39 40 41 41 41 41 41 41 40 41 41 42 42 43 44 44 45 45 44
37 36 36 35 35 35 34 34 34 36 38 39 40 37 37 39 39 35 30 34 37 37 36 36 36 35 33 33 32 32 31 31 31 32 33 34 34 34 35 36 34 32 33 34 32 31 31 29 28 28 28 27 26 26 26 26 26 26 25 26 26 26 26 26 25 25 25 26 27 29 30 30 31 32 33 34 35 37 38 39 40 41 41 41 41 41 41 41 40 40 40 41 42 43 44 45 45
38 38 37 35 36 35 34 34 33 37 40 40 42 39 37 38 38 32 28 35 40 37 36 36 36 35 34 34 33 33 32 32 33 34 34 35 35 36 38 38 36 36 36 35 34 34 33 31 30 30 29 28 27 27 27 28 28 28 28 27 27 27 28 27 27 26 25 26 26 28 29 30 31 32 33 33 34 35 37 38 39 40 41 42 42 42 42 41 40 40 40 40 41 42 43 44 46
38 39 38 34 36 36 32 33 34 38 41 41 43 40 36 36 34 29 28 36 39 37 36 35 36 35 35 35 34 34 33 33 35 36 35 35 36 37 38 38 38 39 38 36 36 36 34 33 33 32 31 29 28 28 28 29 30 31 30 29 28 28 29 28 28 28 27 26 26 27 28 29 30 31 32 33 34 35 36 37 38 39 41 41 42 42 42 42 42 42 42 42 42 43 43 44 46
38 39 39 34 36 36 28 30 35 39 42 42 44 42 35 32 29 26 29 35 38 37 35 34 34 34 34 34 34 34 33 33 35 35 35 35 36 37 37 37 39 39 38 38 37 35 34 34 34 33 32 31 30 29 30 31 32 33 32 31 30 29 29 29 29 29 27 27 27 27 28 28 29 30 31 32 33 34 35 36 37 38 39 40 41 42 42 43 43 44 44 44 44 44 44 45 46
38 39 41 35 35 33 24 29 35 38 43 42 44 45 36 28 25 25 28 34 36 35 33 32 33 33 33 34 34 33 32 32 33 33 34 34 35 35 36 37 38 37 37 37 35 35 35 34 34 34 33 32 31 31 31 32 33 34 33 32 31 30 30 30 30 29 28 28 28 28 28 29 29 30 31 32 33 34 35 36 37 38 38 39 40 41 41 42 43 44 44 44 44 44 44 45 46
38 40 42 38 38 33 24 30 36 38 42 41 44 47 39 28 23 24 28 33 35 34 32 31 31 31 32 33 33 33 32 32 32 32 33 34 33 34 35 36 36 34 34 35 35 35 34 33 34 35 34 33 33 33 33 33 34 35 34 33 31 30 31 31 30 30 29 28 28 28 29 29 29 30 31 32 33 34 35 36 36 37 38 38 39 39 40 41 42 43 43 43 44 44 45 46 47
39 42 42 38 41 40 31 31 35 38 40 41 45 48 44 33 24 24 30 33 34 35 33 31 30 30 30 31 32 33 32 32 32 31 33 34 33 33 34 35 34 32 32 33 34 34 33 32 34 35 34 35 35 35 34 34 35 35 34 33 32 31 31 31 30 30 29 28 28 29 29 30 30 31 32 32 34 35 35 36 36 36 37 38 39 39 40 40 42 43 44 45 45 46 47 47 48
38 43 45 42 44 46 41 34 32 36 41 43 46 49 48 39 29 28 32 33 35 37 35 32 30 29 29 29 31 32 32 32 32 32 33 34 33 33 32 33 32 30 30 32 32 32 32 32 33 34 35 36 36 37 36 35 36 35 34 33 32 31 31 31 30 30 29 29 29 30 31 31 31 32 33 33 34 35 35 35 35 35 36 37 38 39 40 40 41 43 44 45 46 47 48 49 49
38 42 47 48 47 48 47 39 32 36 42 46 48 51 50 43 35 33 33 35 38 38 36 34 31 29 29 30 30 30 31 31 31 33 34 34 33 32 31 31 31 29 29 30 31 32 32 32 33 34 36 37 38 38 37 36 37 35 34 33 32 31 31 31 30 30 30 30 30 31 32 32 33 34 34 34 34 34 34 33 34 34 34 35 36 37 38 39 40 41 42 44 45 46 47 48 49
43 46 50 52 50 50 50 44 36 37 43 48 50 53 51 47 42 37 35 37 40 39 37 35 33 31 32 32 30 29 30 30 29 32 34 35 33 32 32 31 30 29 29 30 31 32 33 33 34 35 37 38 39 38 37 36 36 35 33 32 32 31 31 31 31 31 30 31 32 32 33 34 34 35 35 34 34 33 33 33 33 33 34 34 35 35 36 38 39 40 41 42 43 44 45 46 48
49 50 52 53 52 51 49 44 40 40 46 50 52 54 54 52 48 43 39 39 41 40 38 36 35 35 34 33 32 30 31 29 28 32 33 33 33 33 33 31 31 31 31 30 31 32 33 34 36 37 38 39 39 38 37 37 36 34 33 32 32 32 32 32 31 32 32 33 33 34 34 35 35 35 34 34 33 34 34 33 33 33 34 34 34 35 36 37 38 39 40 41 42 43 44 45 46
51 52 53 54 53 52 48 45 42 42 49 53 53 56 58 56 52 48 44 42 42 40 39 39 37 36 35 34 33 32 32 31 29 31 32 32 32 33 33 33 33 33 33 33 32 33 33 35 36 37 39 39 39 38 37 37 36 34 33 32 33 33 33 32 32 33 34 34 35 35 35 35 35 34 34 34 34 35 35 35 35 35 34 34 34 35 36 37 38 39 40 41 43 43 44 45 45
52 53 54 54 53 52 48 46 44 42 49 54 53 57 58 56 53 50 47 45 42 39 40 40 38 37 36 34 33 32 34 33 31 31 32 33 33 33 34 34 35 35 35 35 34 34 35 35 36 38 39 38 37 37 37 36 35 34 34 33 33 33 33 32 33 34 35 35 36 37 37 36 35 34 34 35 36 37 37 38 37 36 36 35 36 36 37 38 39 40 41 42 43 44 44 44 45
52 53 54 55 53 52 50 47 45 44 50 54 54 57 57 54 53 50 47 46 42 39 40 39 37 37 36 35 35 34 35 35 34 33 33 34 34 34 35 35 36 36 36 35 35 36 36 36 37 38 37 36 36 36 36 35 35 35 34 34 34 33 33 34 35 35 36 37 38 38 37 37 36 35 36 36 37 38 39 39 38 38 37 37 38 38 39 40 41 41 42 43 43 44 44 44 44
53 52 54 55 51 51 52 50 48 48 51 54 55 58 57 52 50 47 45 44 41 40 41 39 37 37 36 37 37 36 34 34 34 34 34 36 36 36 36 35 35 36 35 36 37 37 37 36 37 37 36 36 36 36 35 35 35 35 34 34 34 34 35 36 36 37 38 38 38 38 38 38 37 37 38 39 39 40 40 40 39 38 38 39 40 40 41 42 42 42 43 44 44 44 44 44 44
52 52 53 54 50 50 53 53 53 53 53 52 54 59 57 50 46 44 41 41 41 41 42 40 37 37 37 37 37 36 34 34 34 35 35 37 38 38 37 36 35 35 36 37 38 37 36 36 36 36 36 36 36 35 35 35 34 34 34 35 35 36 37 37 37 38 39 39 39 39 39 39 39 40 41 42 42 42 42 41 40 40 40 41 42 42 43 43 43 43 43 44 44 44 44 45 44
51 52 50 50 50 50 52 53 55 56 56 52 52 58 58 50 45 41 38 41 44 43 42 38 35 36 38 37 35 34 33 33 34 34 35 37 38 38 38 38 37 36 36 37 37 36 35 35 36 36 37 36 35 35 34 34 34 34 35 36 37 37 38 38 39 40 40 40 40 40 40 40 41 42 43 44 45 45 44 44 43 43 43 43 44 44 44 44 43 43 43 43 43 44 44 45 45
52 52 49 47 49 50 51 53 55 56 57 56 55 59 61 56 48 42 41 45 46 44 42 38 35 36 37 35 32 31 30 32 33 32 33 35 37 38 39 39 39 37 37 37 37 35 34 33 34 35 36 36 35 35 34 34 35 36 36 37 38 38 39 39 40 41 41 40 40 40 41 42 43 44 45 46 47 47 47 47 47 46 46 46 46 45 45 44 43 43 42 43 43 43 44 45 45
53 52 50 49 50 50 51 52 54 55 56 58 60 61 63 61 55 49 48 49 48 45 42 39 37 36 34 33 31 29 29 30 31 32 32 33 34 36 38 38 38 37 37 36 36 35 33 32 33 34 35 36 36 36 35 36 36 37 38 38 38 39 39 40 41 41 41 40 40 41 42 43 44 45 46 48 50 50 50 50 50 49 48 48 48 47 47 46 45 43 43 43 44 44 45 46 46
52 51 52 53 53 52 52 52 54 55 56 59 61 62 62 60 59 58 55 52 49 46 45 42 39 37 35 33 33 31 30 30 30 32 32 33 33 34 35 36 36 35 35 34 34 34 33 33 34 35 36 37 37 37 37 37 38 39 39 39 39 40 41 41 42 42 41 41 41 42 43 44 44 45 47 50 52 53 53 52 52 51 51 51 51 50 49 48 47 46 45 45 46 46 47 48 48
52 52 53 53 54 53 53 54 54 56 58 60 62 62 61 57 57 60 59 55 51 48 48 47 44 40 36 34 34 33 32 32 32 33 33 34 35 36 36 35 35 35 35 34 33 33 34 34 36 37 38 39 39 39 39 39 40 40 40 40 40 41 42 43 43 43 43 43 43 43 44 45 45 46 48 51 54 55 55 54 54 53 53 53 54 53 52 51 50 49 48 47 47 48 48 49 50
52 51 52 54 55 55 56 57 57 59 61 61 61 61 60 56 54 58 60 59 58 54 52 50 48 46 40 36 34 35 35 35 35 36 35 35 37 38 37 36 35 36 36 36 34 34 35 36 37 38 40 41 42 42 42 42 42 41 41 41 41 42 43 44 44 43 44 45 44 44 44 45 46 47 49 51 54 57 57 56 55 55 55 56 56 56 54 53 52 51 51 50 50 50 50 51 51
50 50 51 54 55 56 59 61 61 63 63 61 61 60 59 57 55 58 59 59 61 60 57 55 54 53 48 41 38 39 41 40 39 39 38 37 37 38 39 39 38 37 37 37 36 35 35 36 37 39 41 42 43 44 44 43 43 42 42 43 44 45 45 45 45 45 46 46 45 44 44 45 46 47 49 51 54 57 59 58 57 56 57 57 57 57 56 55 55 54 53 52 52 52 52 53 53
48 48 50 53 55 57 62 63 61 62 62 60 60 60 60 58 56 57 57 57 60 61 60 59 59 58 53 47 44 45 47 47 45 43 41 39 38 38 40 40 39 37 37 38 38 37 37 37 37 38 40 41 43 44 44 44 43 43 44 46 47 47 47 47 47 47 48 48 47 46 46 45 46 47 48 50 52 55 60 61 60 58 58 58 58 58 58 57 56 55 54 53 53 52 53 53 54
49 49 50 51 53 58 62 62 60 62 61 59 58 60 61 59 57 57 56 57 59 61 61 62 63 62 58 53 49 48 50 52 49 46 44 42 40 40 40 39 37 36 37 38 37 37 38 39 39 39 40 41 42 44 45 45 45 45 47 49 50 50 49 49 49 49 50 51 50 49 48 47 47 48 49 50 52 54 58 62 63 61 60 59 59 58 58 58 57 56 55 54 53 53 53 54 54
55 54 54 55 57 60 62 60 60 61 60 58 60 62 62 60 59 59 57 58 59 62 64 66 66 65 62 59 56 53 53 53 52 50 47 44 42 42 41 40 39 38 37 37 37 38 39 40 41 42 43 43 43 44 46 47 48 49 51 52 52 51 51 52 53 53 54 54 53 52 50 48 48 49 51 52 53 55 56 59 61 63 63 62 61 60 59 59 58 58 57 56 55 55 56 56 57
59 59 60 62 60 59 59 59 58 59 61 63 64 66 64 60 60 60 59 60 62 64 66 67 67 66 63 62 62 63 60 54 51 51 49 47 44 42 40 39 40 40 39 38 38 39 40 42 43 44 45 45 45 45 45 48 50 52 52 52 52 53 53 54 55 55 56 56 55 53 51 49 48 49 50 51 53 56 57 58 60 62 63 63 62 61 60 59 59 59 59 59 58 59 59 60 61
57 60 62 62 60 60 62 64 63 63 67 68 66 67 66 62 61 60 59 62 64 64 65 66 68 68 66 65 67 68 64 57 52 51 51 49 45 41 37 35 36 38 39 40 40 40 41 42 45 47 48 49 48 47 47 48 49 50 51 52 52 53 54 55 56 57 56 55 54 53 51 50 49 49 50 51 52 54 56 58 58 59 61 62 62 61 60 59 59 60 60 61 61 60 60 61 60
56 58 57 57 59 61 63 67 67 67 71 71 67 67 67 64 62 60 59 62 62 62 64 66 70 72 70 68 68 68 64 58 54 52 52 50 47 41 35 32 34 37 39 41 41 41 42 43 45 48 51 51 50 49 49 48 48 49 50 51 52 53 54 55 56 56 55 55 54 54 53 53 52 51 51 51 53 54 55 55 56 58 59 60 60 59 59 58 59 59 60 60 59 58 58 59 59
60 60 58 57 60 61 61 65 69 69 72 73 70 68 67 65 63 61 61 63 63 64 65 67 71 74 71 67 67 66 62 55 50 51 51 49 45 40 36 35 37 39 41 43 43 42 42 44 46 48 51 52 51 50 50 49 49 49 50 50 51 52 53 54 55 55 55 55 55 56 57 57 56 55 52 51 52 53 53 53 53 54 56 57 57 56 56 55 56 57 58 58 58 58 58 59 60
65 64 61 62 63 62 62 65 68 70 71 71 69 69 68 64 61 62 63 64 65 66 67 67 69 71 69 64 62 61 57 52 49 50 50 47 41 37 36 37 40 42 46 47 44 42 42 45 47 48 50 51 51 51 52 51 51 51 51 52 52 53 54 54 55 56 56 56 56 57 58 59 59 57 54 51 51 52 51 51 50 51 52 53 54 54 54 55 56 58 59 60 60 60 61 62 62
65 62 60 62 65 64 66 68 68 70 71 70 67 67 68 62 57 59 63 63 64 64 65 64 64 65 62 58 56 55 54 52 49 49 49 47 42 38 38 39 41 45 51 53 48 42 43 46 47 48 50 52 52 52 53 54 54 53 54 54 55 55 55 56 56 56 57 58 58 57 58 59 59 56 53 52 52 52 51 51 50 50 50 52 54 55 56 57 59 61 62 62 62 62 63 64 64
60 56 53 55 60 63 68 70 68 68 71 71 67 65 69 64 54 52 54 55 58 60 61 60 59 57 54 53 53 53 54 52 50 50 49 47 44 41 41 43 45 50 55 57 53 47 46 48 49 50 52 53 55 55 56 57 58 57 56 56 57 56 56 57 58 59 59 60 59 59 60 59 57 55 54 53 52 52 52 51 50 51 51 53 55 56 57 59 61 62 62 63 63 64 65 65 65
Wind_Direction
297 298 298 299 299 301 302 302 303 303 306 311 315 317 318 315 308 306 305 303 305 309 309 309 312 312 313 313 310 308 306 303 300 298 298 300 304 303 304 309 308 307 309 309 306 305 306 306 305 308 313 315 311 303 306 309 290 136 136 134 130 128 125 127 129 129 129 134 146 165 180 203 236 250 258 267 273 275 274 275 276 274 272 273 273 271 269 266 262 259 257 256 255 254 255 254 253
299 300 301 302 304 307 307 310 310 310 316 322 327 327 321 315 309 307 302 302 305 308 309 309 311 310 310 308 304 301 298 296 294 291 287 288 289 289 291 295 296 299 301 301 300 299 300 299 297 297 297 293 287 281 277 273 268 260 224 187 170 164 163 163 166 166 161 167 180 189 199 219 244 258 264 272 280 284 285 285 285 283 282 281 281 279 274 271 268 264 261 260 258 257 258 258 258
311 312 312 314 317 318 318 322 322 322 329 333 334 329 321 315 311 309 306 309 312 314 314 312 313 312 311 308 304 300 296 292 288 284 281 278 277 278 281 282 283 286 291 293 293 293 293 292 291 290 289 286 282 276 271 267 264 264 261 249 226 204 196 198 203 204 202 206 214 219 227 237 247 260 269 274 281 286 289 290 291 291 291 290 289 288 284 280 276 272 269 266 263 262 263 263 263
320 322 324 325 327 327 328 334 334 335 340 339 337 331 324 321 319 319 318 318 320 320 318 317 317 316 315 311 307 302 298 294 287 282 278 274 271 272 273 273 273 276 280 283 286 286 285 285 285 284 283 282 280 276 271 266 263 262 262 262 257 244 228 220 220 222 223 225 231 236 243 251 258 265 271 276 279 285 289 291 293 295 295 295 294 292 290 286 281 278 275 272 268 266 266 266 267
325 329 331 332 333 334 337 345 345 343 346 347 348 343 338 335 333 334 333 331 330 327 325 325 325 322 319 317 313 306 301 297 293 287 280 273 269 268 268 268 268 270 271 273 277 279 279 278 278 277 277 277 275 273 270 267 264 261 259 260 261 258 250 240 233 233 234 235 238 242 246 252 260 266 271 276 279 282 286 290 292 294 295 295 294 293 291 288 285 283 280 279 276 273 272 271 270
332 336 337 336 338 339 344 352 350 347 349 353 357 355 350 345 343 347 347 347 347 343 342 341 338 333 327 323 317 311 308 302 298 292 284 278 271 266 265 264 263 264 265 265 268 269 271 272 272 271 271 271 271 270 269 267 266 264 262 262 262 262 259 253 247 243 243 244 245 247 249 251 255 260 264 269 273 276 279 283 287 290 292 292 292 292 291 290 289 287 286 284 282 281 278 277 276
342 344 342 339 342 341 346 354 350 348 352 354 355 355 351 348 351 357 357 358 358 358 358 356 352 347 340 333 327 323 317 309 306 304 297 290 283 274 268 264 261 261 261 260 260 262 264 266 267 267 267 267 268 268 268 268 267 267 266 266 267 267 266 264 260 256 253 253 254 255 256 257 257 258 259 262 265 268 270 273 277 281 285 287 289 289 290 290 290 290 289 289 288 286 284 283 281
347 348 344 340 342 340 344 351 349 345 349 353 352 348 347 347 351 354 356 358 357 0 2 0 358 354 348 343 341 339 328 320 321 319 314 306 299 290 280 273 268 263 261 258 257 258 259 260 262 264 265 265 266 267 268 268 267 267 268 268 270 271 272 272 271 268 266 265 265 265 266 266 265 264 263 261 262 264 265 267 269 271 274 278 281 283 285 287 287 288 289 289 289 289 288 288 286
345 345 342 338 339 339 341 346 347 340 342 352 348 341 342 343 346 349 354 354 352 357 359 356 354 351 344 343 345 346 337 332 335 333 325 316 308 302 294 288 280 274 268 263 259 258 257 256 257 260 262 263 264 264 265 266 266 267 268 269 269 271 273 274 275 274 273 272 272 272 273 273 272 272 270 268 266 265 265 266 267 268 269 271 273 275 278 280 281 283 284 285 286 287 288 288 288
340 340 337 335 335 335 338 342 343 336 337 347 340 333 333 335 341 346 350 349 346 350 355 351 347 346 339 337 340 344 340 336 340 340 333 326 319 311 301 295 290 285 280 274 267 262 259 258 256 256 257 259 261 262 263 264 265 266 268 268 268 268 269 270 271 272 272 272 273 273 274 274 274 274 273 272 271 269 268 268 268 268 268 269 271 272 274 275 277 278 279 280 281 283 284 285 286
332 335 333 329 330 330 333 336 338 333 331 335 331 325 324 334 344 345 345 343 339 340 348 346 340 339 335 332 334 341 340 335 337 337 334 333 329 320 311 304 299 293 287 280 273 267 264 261 259 256 255 255 257 259 260 262 264 265 266 266 267 266 266 266 266 267 269 270 271 272 274 274 274 274 274 273 272 272 271 270 269 269 269 270 270 271 272 273 273 274 275 276 277 278 280 281 281
326 328 329 325 326 324 325 328 328 325 321 321 323 322 324 336 347 348 347 341 334 333 339 341 335 332 328 326 328 334 336 333 334 333 332 333 331 324 320 316 310 303 295 286 278 273 269 265 263 260 257 255 256 257 258 260 263 264 265 265 265 265 264 264 264 265 266 268 269 271 272 273 273 274 274 274 273 273 272 272 272 271 272 272 272 272 272 272 272 272 272 273 274 275 276 277 277
322 322 324 322 322 322 321 322 319 316 311 311 319 324 325 332 341 346 348 342 332 332 336 338 336 330 324 321 323 326 327 328 326 326 328 330 330 327 324 322 318 313 306 299 290 283 276 271 267 264 261 259 258 258 259 260 261 263 263 264 263 263 263 263 263 264 265 265 266 267 268 270 270 271 271 271 271 271 272 272 272 273 274 275 275 275 274 274 273 272 271 271 271 271 272 272 272
320 319 319 318 320 321 320 320 319 317 314 315 323 328 325 326 330 334 341 340 332 332 334 336 337 332 325 319 320 323 323 325 321 317 320 323 325 324 322 322 320 318 313 309 302 294 287 280 275 270 266 263 261 261 261 261 261 262 262 262 262 261 261 261 262 263 263 263 263 264 264 265 266 266 266 266 267 267 268 268 269 271 272 274 275 275 275 275 274 273 272 270 269 268 268 268 268
316 316 316 316 317 317 317 317 318 319 317 320 325 324 320 320 322 322 328 331 328 328 330 336 337 330 327 321 320 323 322 325 321 313 314 316 318 318 317 316 315 315 314 311 306 302 297 291 285 280 275 271 267 264 263 262 261 261 261 261 261 261 259 259 261 262 263 263 263 263 263 263 263 263 263 263 263 263 264 265 266 267 268 270 272 273 274 274 274 273 272 271 269 267 266 266 266
310 311 311 310 311 311 312 313 314 315 315 320 321 318 317 316 317 317 318 319 321 323 323 333 335 327 327 324 321 322 320 321 319 314 312 312 313 313 312 310 309 309 309 307 305 303 300 297 293 289 284 279 275 271 269 266 264 262 261 260 260 260 259 259 260 262 263 264 264 264 264 264 264 264 263 263 262 262 261 262 263 264 265 267 269 270 271 272 272 272 272 271 271 269 268 266 265
304 305 305 305 306 307 307 307 308 307 309 311 310 310 313 312 312 314 314 313 315 316 314 320 327 321 322 323 321 320 318 317 314 311 308 305 304 304 304 303 303 304 304 302 301 300 299 298 296 292 289 284 281 278 275 271 268 266 263 261 260 259 258 258 259 260 262 264 265 265 265 266 266 267 266 266 264 263 262 261 261 262 263 265 267 269 269 269 270 270 271 271 271 271 270 268 267
298 300 301 300 301 302 302 303 303 302 303 303 302 303 304 305 307 310 310 310 311 310 307 310 316 315 315 316 317 318 316 313 310 308 305 302 299 297 297 297 298 298 298 298 297 296 295 295 294 293 290 288 286 283 280 276 273 270 267 264 262 260 259 258 258 259 261 262 264 265 266 266 267 267 267 267 266 265 264 263 262 261 262 263 265 267 267 268 269 271 271 272 272 272 271 270 269
294 296 297 297 297 299 299 301 300 300 300 300 301 301 301 301 302 305 304 306 308 304 301 304 309 308 308 310 310 312 312 310 306 305 303 301 299 296 295 295 295 296 295 295 294 293 293 293 291 290 289 289 288 286 284 281 278 275 272 268 265 262 260 260 259 260 261 262 263 264 265 265 266 266 266 266 265 265 264 263 262 262 262 263 264 265 266 267 268 270 272 273 274 273 272 270 269
293 294 295 293 294 296 297 297 297 298 298 298 299 299 299 299 300 300 300 302 302 297 296 300 302 300 301 303 304 305 305 304 302 301 300 299 298 295 294 293 293 293 292 293 293 293 293 292 291 289 288 288 287 285 284 282 280 278 275 272 269 266 264 263 262 262 262 263 264 264 265 266 266 267 266 266 265 265 264 264 263 263 262 263 263 264 264 265 267 269 271 273 274 274 274 272 270
293 294 292 291 291 293 294 294 295 295 296 296 295 295 296 296 298 297 298 300 294 290 294 296 296 295 294 296 297 299 299 298 297 296 295 296 296 294 293 291 290 289 288 290 290 292 292 291 291 290 289 288 287 285 283 281 279 277 275 274 272 269 267 266 265 264 264 265 265 266 268 269 269 269 269 269 268 267 266 266 265 264 264 265 265 265 265 266 267 268 270 272 273 274 274 273 272
291 291 290 289 289 291 292 292 293 294 294 293 293 293 294 294 295 295 297 297 289 288 292 293 293 291 291 291 292 293 292 292 293 291 290 292 292 292 291 290 288 286 286 287 287 288 289 290 290 290 290 288 287 285 282 279 276 274 274 273 272 270 268 267 266 266 265 266 267 268 269 271 272 273 273 274 273 273 271 270 269 268 268 267 267 267 267 267 268 269 270 271 272 272 273 272 272
288 289 288 288 289 291 291 291 293 292 292 291 290 292 293 293 292 293 296 296 289 288 291 292 292 289 286 286 287 287 287 288 289 288 287 288 288 287 287 287 285 284 284 285 284 284 286 288 290 290 290 288 287 286 282 279 275 273 272 271 271 269 268 267 266 266 266 267 268 269 270 271 272 274 275 276 277 277 276 275 273 272 271 270 270 270 269 269 270 270 270 271 271 272 271 271 270
287 287 286 286 289 290 289 289 291 290 289 288 287 289 290 290 291 293 298 296 289 288 290 291 291 287 284 282 281 280 281 283 284 284 285 285 284 283 283 282 281 281 282 281 279 282 284 285 287 290 291 289 287 286 283 279 276 273 271 270 269 269 269 268 267 267 267 267 268 268 269 270 272 274 275 276 277 277 277 276 276 274 273 272 272 271 271 271 271 271 271 271 270 270 270 269 268
288 287 285 286 288 289 288 289 289 288 286 285 285 288 289 289 291 296 300 294 287 287 289 289 287 286 285 282 278 277 276 276 276 277 278 279 280 280 280 278 277 278 279 277 277 279 279 280 284 288 289 288 287 286 284 280 277 274 272 270 269 269 270 270 270 270 269 268 268 268 269 270 271 273 274 275 276 276 276 276 276 275 274 274 273 272 272 272 272 271 271 271 270 269 269 268 267
289 288 287 288 288 288 289 290 290 287 284 284 286 288 288 289 292 299 300 290 285 287 288 287 286 286 285 283 280 279 277 275 273 271 271 274 275 276 276 274 274 275 273 273 275 276 275 277 281 283 285 286 285 285 284 281 278 275 272 271 270 270 270 270 270 271 272 271 270 270 270 271 271 272 273 274 275 275 276 276 275 275 274 274 273 273 273 273 272 272 271 271 271 270 269 268 267
289 289 289 290 288 286 288 290 290 286 284 285 286 287 288 288 293 301 297 285 285 288 288 286 285 286 284 283 283 282 280 278 275 272 271 271 271 271 271 272 273 272 270 271 272 272 273 276 278 279 280 281 282 283 283 280 278 275 273 272 271 270 269 270 270 271 272 273 273 273 272 272 273 273 274 274 275 276 276 276 275 275 274 273 273 273 273 273 272 271 271 272 272 271 271 270 268
291 291 291 291 289 287 290 291 287 283 283 286 286 287 288 289 296 301 291 284 287 291 290 288 286 285 285 285 284 283 282 279 276 276 275 273 271 269 270 271 271 270 270 270 270 270 273 274 274 275 277 278 280 281 280 278 277 275 273 272 271 270 270 270 270 270 271 273 274 274 275 275 275 275 275 275 276 276 276 276 276 276 275 274 273 273 272 272 271 271 271 272 272 271 271 270 269
293 294 292 292 290 291 295 289 283 282 284 285 286 286 287 292 298 297 288 287 290 293 293 289 287 286 286 285 284 283 282 278 277 278 278 276 274 272 271 271 270 270 270 270 270 272 272 271 272 273 275 277 278 279 279 278 276 275 273 272 271 270 270 270 269 270 271 272 274 275 276 277 277 277 277 277 277 277 277 277 276 276 275 275 274 273 272 271 271 271 271 271 271 271 270 270 270
294 294 293 297 293 292 294 282 279 281 283 285 285 285 287 293 295 291 286 286 288 292 292 289 287 288 286 285 284 283 281 279 279 281 280 279 277 275 274 271 270 271 272 272 272 272 270 270 271 272 274 275 276 278 279 279 276 274 274 273 272 270 269 269 269 270 271 272 273 275 277 278 279 279 280 280 279 279 278 277 276 276 275 274 274 273 273 272 271 271 271 271 271 271 270 270 270
294 294 296 301 296 290 285 277 279 281 283 285 284 284 287 290 291 286 281 282 286 289 290 289 288 287 285 284 284 283 281 280 281 282 282 280 278 276 274 272 272 273 273 272 271 270 270 270 270 271 273 274 276 278 279 278 276 275 275 274 272 269 268 268 269 270 271 272 274 275 278 279 281 282 282 281 281 280 279 278 277 275 274 273 272 272 272 272 271 271 270 270 270 270 271 271 271
296 297 297 299 293 289 284 280 285 287 287 286 283 284 286 287 288 281 276 278 282 285 287 288 286 282 280 281 280 280 280 280 281 282 280 279 278 276 274 274 275 275 273 271 270 270 271 270 270 272 273 274 275 276 278 278 276 276 275 273 270 268 267 268 269 270 271 272 274 277 279 281 283 283 283 282 281 280 279 278 277 275 274 272 271 271 270 270 270 270 269 269 269 270 270 271 271
300 297 294 292 289 288 286 285 289 291 289 286 285 285 284 286 287 280 277 278 279 281 285 285 284 282 280 278 276 277 277 277 280 282 279 278 277 277 276 276 276 275 273 272 272 273 273 271 271 272 272 273 274 275 276 276 275 274 274 272 269 267 266 267 268 270 272 274 277 279 281 282 283 284 283 282 280 279 278 278 277 276 275 273 272 271 270 270 270 270 270 270 270 270 271 271 272
299 293 290 289 288 288 288 289 291 289 287 286 285 283 283 285 285 280 279 280 280 282 284 285 285 284 281 279 279 280 278 276 279 281 280 279 279 278 277 276 275 274 274 275 276 276 275 273 270 270 270 271 272 273 274 274 273 274 274 272 269 266 266 267 268 270 273 276 279 280 281 283 284 284 283 281 280 279 278 278 278 277 276 275 274 272 272 271 271 271 272 272 272 272 272 273 273
294 290 288 288 289 289 289 292 293 289 285 283 282 281 282 284 282 279 279 280 282 282 283 287 288 285 282 282 284 285 282 279 278 277 278 279 280 279 277 276 275 275 275 276 277 278 277 274 269 267 267 269 270 272 273 272 272 273 274 271 268 266 266 266 268 270 273 277 279 280 282 283 284 284 283 282 281 279 279 280 281 279 277 275 274 273 273 272 272 272 272 272 272 272 272 272 272
289 288 288 288 290 290 291 296 296 291 285 280 281 282 282 281 280 280 279 280 282 282 284 287 288 285 284 286 288 287 283 280 277 274 275 278 279 279 277 276 276 276 276 276 278 279 277 274 269 266 265 267 269 271 271 270 270 272 271 269 266 264 264 266 268 272 275 278 280 282 283 284 285 285 284 282 281 279 279 281 282 281 279 277 275 274 274 274 273 273 272 272 272 271 271 271 271
286 287 287 288 290 290 294 297 297 294 287 281 281 281 280 280 282 283 283 281 282 284 284 284 285 285 285 287 288 285 282 279 275 274 275 277 277 276 275 275 274 274 275 276 277 278 277 275 270 266 265 266 268 270 269 269 270 271 269 266 263 262 263 266 269 272 275 279 282 283 283 284 285 285 283 281 280 279 279 279 281 281 280 278 277 277 276 276 275 274 273 273 272 271 270 271 271
284 285 286 287 288 291 294 296 297 295 286 282 281 280 280 282 284 285 285 284 284 284 283 283 284 285 285 286 285 284 283 280 276 274 274 276 276 275 273 273 272 272 273 274 274 276 276 274 270 267 266 267 268 268 268 269 270 269 266 264 262 263 265 267 269 271 276 280 282 283 284 285 285 284 283 281 280 279 279 279 280 281 280 279 279 278 279 279 277 276 274 273 272 271 271 271 272
282 283 285 285 288 291 291 292 294 290 285 284 284 283 284 285 285 286 286 287 288 286 284 285 286 285 284 284 283 283 282 279 276 275 273 273 273 273 272 272 272 272 272 272 274 275 274 271 268 267 267 267 267 266 267 268 267 265 264 264 264 265 266 267 269 273 276 279 281 282 284 285 285 285 284 282 281 280 280 280 281 281 280 280 279 279 279 280 279 277 275 273 272 272 272 271 271
280 282 283 284 288 291 289 290 290 287 285 286 287 286 285 285 285 286 288 290 290 288 287 287 286 285 285 284 284 284 281 278 275 275 275 273 271 270 269 270 271 272 271 271 273 274 272 268 266 265 265 265 265 265 265 264 263 263 264 265 266 267 268 269 271 274 277 279 282 283 284 285 287 287 286 284 282 281 281 280 279 280 280 279 279 279 279 279 279 278 276 274 272 272 272 271 271
279 280 281 283 287 287 286 288 289 287 285 286 290 288 284 285 287 288 292 293 292 291 289 288 286 287 285 283 285 286 283 280 277 275 273 271 270 269 268 267 269 270 270 270 272 273 271 268 266 263 262 262 263 263 262 262 263 264 265 266 267 268 269 270 272 275 278 281 283 284 285 286 288 288 288 286 285 283 282 281 280 279 279 279 279 278 278 278 278 278 277 274 272 272 271 271 271
278 277 279 281 282 282 283 287 288 287 286 288 289 287 285 287 287 290 296 295 293 292 290 289 288 287 286 284 283 283 283 284 282 277 272 269 268 268 267 267 269 269 267 267 270 273 272 269 266 263 262 262 263 262 262 263 264 266 267 268 269 269 271 272 274 276 279 281 283 284 285 287 288 288 288 287 286 285 284 283 282 281 281 281 280 279 279 278 279 278 277 275 273 272 271 271 271
274 274 276 276 276 279 281 283 284 285 286 288 287 286 287 289 289 293 297 293 291 290 291 293 292 288 286 283 278 278 282 285 284 279 273 269 268 268 268 269 269 269 267 266 269 272 270 268 267 265 265 264 264 263 263 264 265 267 267 268 269 271 272 273 275 277 279 281 284 285 285 287 288 288 288 287 286 285 285 284 284 283 283 283 282 281 280 279 279 278 276 274 272 271 271 271 271
271 273 275 274 274 275 277 279 280 281 283 284 284 285 287 292 296 297 295 290 290 292 292 292 292 289 284 279 277 278 280 280 280 279 275 272 270 270 270 271 270 270 269 269 269 269 267 267 267 266 265 264 263 263 263 264 266 267 268 270 272 273 273 274 276 278 280 282 283 284 285 286 287 287 286 285 285 284 284 284 284 285 284 284 283 282 281 280 278 277 275 272 271 270 271 271 271
272 274 274 273 274 275 276 277 278 278 278 279 280 282 285 290 296 296 292 289 290 293 293 291 290 288 282 280 282 281 279 275 273 274 274 275 275 274 274 273 272 270 270 270 269 268 267 267 266 264 263 263 263 263 264 266 267 269 271 272 273 273 273 274 276 278 280 281 281 282 283 284 285 285 284 284 284 284 284 284 285 285 285 285 284 283 281 280 278 276 274 272 271 271 271 272 272
274 274 273 274 275 276 277 277 277 277 275 275 277 281 286 289 292 292 290 291 292 294 294 291 291 289 285 284 285 283 280 276 272 270 271 273 276 277 277 275 272 269 268 269 270 269 266 265 265 265 264 264 264 265 266 267 268 269 270 271 271 271 272 273 275 277 278 279 279 280 281 282 283 283 282 282 283 283 284 285 285 285 285 285 285 283 282 281 279 277 275 273 272 273 273 274 274
272 273 274 275 276 277 278 277 277 276 273 274 277 281 286 287 288 288 289 293 295 295 294 292 293 293 290 286 285 283 280 277 274 272 270 272 275 276 276 275 273 270 268 269 270 268 265 265 265 265 265 265 266 267 267 267 268 269 270 270 271 271 272 273 275 276 277 277 278 279 280 281 281 281 280 280 281 282 283 283 284 284 284 284 284 284 283 282 280 278 276 275 275 275 276 276 276
273 273 274 275 275 276 276 275 275 275 273 274 278 281 282 281 282 284 287 290 292 293 294 293 293 292 290 288 288 287 284 282 280 277 274 272 273 273 273 274 274 271 270 269 269 268 265 264 264 265 265 267 267 268 269 271 272 273 274 275 275 274 274 275 276 276 276 276 277 279 280 279 279 278 278 278 279 281 281 281 282 282 283 282 282 282 282 282 281 280 279 278 277 278 278 278 278
273 272 271 272 273 274 274 273 274 276 275 278 283 283 279 276 277 279 282 285 287 290 291 291 290 288 288 288 289 289 287 285 284 282 280 278 276 275 274 273 272 269 267 266 266 267 267 265 265 266 267 268 269 270 271 273 275 277 278 279 279 278 278 277 277 277 276 277 277 278 278 277 276 275 275 277 279 279 280 280 280 281 281 281 280 280 280 280 281 281 280 280 280 280 280 280 280
272 270 269 269 270 271 272 274 277 279 278 281 283 280 275 275 278 279 281 283 285 288 288 288 287 287 289 289 288 287 286 285 285 284 283 282 281 280 278 277 275 270 266 265 265 265 266 265 265 266 268 268 269 271 272 273 274 276 277 277 277 278 278 277 277 277 277 278 279 279 278 276 275 274 274 275 277 278 279 279 279 280 280 280 279 278 278 279 280 280 280 281 281 282 282 282 282
271 271 270 268 269 271 273 277 279 280 280 279 277 274 273 275 279 280 280 282 284 285 285 285 286 288 291 292 291 288 285 286 287 287 286 283 280 278 278 279 277 273 271 270 270 269 269 268 268 268 268 268 268 269 270 271 272 272 273 273 274 275 275 275 276 277 278 279 280 280 280 277 275 273 273 274 275 276 277 277 278 279 279 279 278 278 278 279 279 279 280 280 281 282 282 282 283
272 272 272 271 273 276 276 276 276 277 277 276 275 275 273 274 275 277 278 280 281 282 282 282 285 288 289 291 292 291 290 290 290 290 290 288 285 282 279 277 274 273 274 274 274 275 276 276 275 275 273 272 271 270 270 270 270 270 271 271 272 272 273 274 275 276 277 279 280 281 281 280 276 274 273 273 272 272 273 275 276 277 278 278 278 278 278 278 279 279 279 279 280 280 281 281 281
275 273 273 276 278 278 276 275 274 274 273 273 275 275 276 277 275 274 276 276 277 278 279 281 283 285 286 288 290 291 293 295 295 295 294 292 291 288 281 270 264 266 270 272 274 274 275 277 278 279 278 278 276 274 273 272 270 270 272 272 272 272 273 274 275 276 277 279 281 282 281 280 277 274 272 270 270 269 270 271 273 275 276 277 277 277 277 277 278 277 277 278 278 279 279 279 279
280 280 280 281 279 276 275 274 273 272 271 272 273 273 275 277 275 274 275 275 275 276 277 279 281 281 283 286 288 290 292 294 297 298 298 296 294 289 278 260 253 260 267 270 270 269 272 275 276 277 277 277 277 276 274 273 271 270 270 271 271 271 271 272 274 277 279 281 282 282 281 279 278 276 273 271 269 269 269 269 270 272 273 274 275 276 276 276 276 276 277 277 277 278 278 278 279
287 287 284 280 277 277 276 273 271 271 270 271 272 270 270 272 273 274 274 274 275 276 276 278 280 280 282 285 287 289 291 293 296 299 299 299 294 286 274 257 249 258 269 271 268 267 270 273 274 274 273 273 273 275 274 272 270 269 268 268 269 269 270 272 275 277 279 280 280 280 279 279 279 277 275 273 271 271 271 271 270 270 271 272 274 275 275 276 277 277 277 277 277 277 278 279 280
289 287 283 279 277 278 276 272 270 269 268 269 268 266 265 267 270 271 272 272 272 274 275 277 279 282 285 288 288 289 291 294 298 299 299 298 291 278 268 256 247 256 271 274 270 268 271 273 275 273 272 271 272 271 270 269 269 268 267 267 268 269 271 273 275 277 278 279 278 278 278 278 277 276 275 274 273 273 273 273 272 271 271 271 273 274 275 277 277 278 278 278 278 279 279 280 281
288 286 284 280 278 276 272 268 267 266 265 265 266 265 263 263 265 266 267 270 271 273 275 277 281 284 288 290 290 289 292 297 299 298 297 296 288 276 264 255 249 255 269 274 271 270 272 272 273 274 274 275 274 272 270 268 268 267 266 266 267 269 270 271 273 275 277 277 278 278 278 276 275 273 273 273 273 273 273 272 272 272 272 272 273 275 276 278 278 279 279 279 279 280 280 281 281
283 283 282 280 278 275 271 269 271 269 265 262 263 264 262 263 267 268 269 273 275 276 277 278 281 283 285 286 287 287 289 293 296 295 292 289 283 275 263 255 252 255 264 270 271 273 273 271 272 275 275 276 276 275 273 270 269 268 268 268 268 269 270 271 273 274 275 275 276 277 276 274 273 272 271 272 272 272 272 272 273 274 275 276 276 278 278 279 279 279 279 279 279 279 280 281 282